CEB505 RPVE-RPLL

Flight info

Callsign CEB505
Flight time 0h 42m
Altitude 22000
Route MINOR8A MINOR B473 LAIYA LAIYA3R
Aircraft A320/M-SDE3FGHIRWY/LB1

Departure

Time 2026-05-05 14:10
Airport Godofredo P. Ramos Airport (RPVE)

Arrival

Time 2026-05-05 14:52
Airport Ninoy Aquino International Airport (RPLL)
Time Latitude Longitude Altitude Speed Heading
2026-05-05 13:51 11.92680 121.96430 30 ft 0 kts 154°
2026-05-05 13:58 11.92681 121.96429 30 ft 0 kts 154°
2026-05-05 13:59 11.92707 121.96416 30 ft 2 kts 151°
2026-05-05 13:59 11.92721 121.96410 30 ft 2 kts 186°
2026-05-05 14:00 11.92741 121.96423 30 ft 1 kts 242°
2026-05-05 14:00 11.92744 121.96428 30 ft 1 kts 244°
2026-05-05 14:00 11.92744 121.96429 30 ft 0 kts 243°
2026-05-05 14:02 11.92743 121.96426 30 ft 0 kts 244°
2026-05-05 14:02 11.92741 121.96421 30 ft 1 kts 244°
2026-05-05 14:03 11.92734 121.96408 30 ft 2 kts 243°
2026-05-05 14:03 11.92722 121.96386 30 ft 5 kts 242°
2026-05-05 14:03 11.92697 121.96336 30 ft 9 kts 243°
2026-05-05 14:03 11.92664 121.96272 30 ft 10 kts 243°
2026-05-05 14:04 11.92643 121.96209 30 ft 9 kts 281°
2026-05-05 14:04 11.92693 121.96169 30 ft 9 kts 333°
2026-05-05 14:04 11.92754 121.96138 30 ft 9 kts 334°
2026-05-05 14:04 11.92800 121.96098 30 ft 9 kts 279°
2026-05-05 14:05 11.92778 121.96036 30 ft 9 kts 242°
2026-05-05 14:05 11.92747 121.95978 30 ft 9 kts 243°
2026-05-05 14:05 11.92718 121.95918 30 ft 9 kts 244°
2026-05-05 14:05 11.92688 121.95857 30 ft 9 kts 242°
2026-05-05 14:06 11.92657 121.95798 30 ft 9 kts 242°
2026-05-05 14:06 11.92624 121.95734 30 ft 10 kts 243°
2026-05-05 14:06 11.92587 121.95660 30 ft 12 kts 242°
2026-05-05 14:06 11.92547 121.95579 30 ft 13 kts 243°
2026-05-05 14:07 11.92502 121.95491 30 ft 14 kts 243°
2026-05-05 14:07 11.92454 121.95396 30 ft 15 kts 243°
2026-05-05 14:07 11.92404 121.95297 30 ft 16 kts 243°
2026-05-05 14:07 11.92353 121.95194 30 ft 16 kts 243°
2026-05-05 14:08 11.92309 121.95104 30 ft 10 kts 243°
2026-05-05 14:08 11.92271 121.95057 30 ft 7 kts 219°
2026-05-05 14:08 11.92260 121.95046 30 ft 0 kts 255°
2026-05-05 14:08 11.92265 121.95042 30 ft 1 kts 338°
2026-05-05 14:09 11.92278 121.95049 30 ft 3 kts 51°
2026-05-05 14:09 11.92292 121.95072 30 ft 4 kts 61°
2026-05-05 14:09 11.92321 121.95125 30 ft 30 kts 62°
2026-05-05 14:09 11.92569 121.95621 30 ft 123 kts 63°
2026-05-05 14:10 11.93019 121.96552 545 ft 152 kts 64°
2026-05-05 14:10 11.93451 121.97480 1513 ft 152 kts 65°
2026-05-05 14:10 11.93895 121.98422 2248 ft 151 kts 63°
2026-05-05 14:10 11.94422 121.99431 2633 ft 167 kts 62°
2026-05-05 14:11 11.95091 122.00461 3004 ft 185 kts 43°
2026-05-05 14:11 11.96234 122.01182 3378 ft 202 kts 28°
2026-05-05 14:11 11.97571 122.01829 3748 ft 219 kts 27°
2026-05-05 14:11 11.99013 122.02537 4001 ft 241 kts 27°
2026-05-05 14:12 12.00589 122.03348 4395 ft 258 kts 28°
2026-05-05 14:12 12.02259 122.04198 4837 ft 272 kts 22°
2026-05-05 14:12 12.04138 122.04417 5382 ft 281 kts 350°
2026-05-05 14:12 12.05989 122.03740 6034 ft 285 kts 337°
2026-05-05 14:13 12.07785 122.02856 6612 ft 287 kts 335°
2026-05-05 14:13 12.09618 122.01959 7140 ft 291 kts 336°
2026-05-05 14:13 12.11490 122.01083 7656 ft 294 kts 337°
2026-05-05 14:13 12.13372 122.00237 8124 ft 296 kts 338°
2026-05-05 14:14 12.15279 121.99401 8565 ft 298 kts 338°
2026-05-05 14:14 12.17201 121.98573 8998 ft 301 kts 339°
2026-05-05 14:14 12.19154 121.97741 9427 ft 304 kts 339°
2026-05-05 14:14 12.21134 121.96902 9836 ft 306 kts 339°
2026-05-05 14:15 12.23120 121.96064 10200 ft 308 kts 339°
2026-05-05 14:15 12.25109 121.95226 10488 ft 312 kts 339°
2026-05-05 14:15 12.27173 121.94360 10811 ft 316 kts 339°
2026-05-05 14:15 12.29205 121.93507 11141 ft 317 kts 339°
2026-05-05 14:16 12.31270 121.92640 11446 ft 319 kts 339°
2026-05-05 14:16 12.33361 121.91763 11738 ft 320 kts 339°
2026-05-05 14:16 12.35440 121.90891 12005 ft 322 kts 339°
2026-05-05 14:16 12.37538 121.90012 12261 ft 324 kts 339°
2026-05-05 14:17 12.39630 121.89136 12514 ft 325 kts 339°
2026-05-05 14:17 12.41746 121.88249 12746 ft 327 kts 339°
2026-05-05 14:17 12.43864 121.87361 12966 ft 328 kts 339°
2026-05-05 14:17 12.46015 121.86459 13186 ft 329 kts 339°
2026-05-05 14:18 12.48149 121.85561 13387 ft 331 kts 339°
2026-05-05 14:18 12.50286 121.84663 13588 ft 332 kts 339°
2026-05-05 14:18 12.52476 121.83742 13787 ft 334 kts 339°
2026-05-05 14:18 12.54632 121.82835 13974 ft 335 kts 339°
2026-05-05 14:19 12.56795 121.81924 14152 ft 336 kts 339°
2026-05-05 14:19 12.58996 121.80997 14322 ft 337 kts 339°
2026-05-05 14:19 12.61192 121.80071 14485 ft 338 kts 339°
2026-05-05 14:19 12.63383 121.79147 14642 ft 339 kts 339°
2026-05-05 14:20 12.65583 121.78219 14791 ft 340 kts 339°
2026-05-05 14:20 12.67791 121.77287 14935 ft 341 kts 339°
2026-05-05 14:20 12.69974 121.76366 15068 ft 342 kts 339°
2026-05-05 14:20 12.72230 121.75416 15203 ft 343 kts 339°
2026-05-05 14:21 12.74454 121.74478 15325 ft 343 kts 339°
2026-05-05 14:21 12.76674 121.73543 15437 ft 344 kts 339°
2026-05-05 14:21 12.78902 121.72602 15547 ft 345 kts 339°
2026-05-05 14:21 12.81133 121.71660 15659 ft 346 kts 339°
2026-05-05 14:22 12.83363 121.70718 15766 ft 346 kts 339°
2026-05-05 14:22 12.85627 121.69762 15862 ft 347 kts 339°
2026-05-05 14:22 12.87851 121.68823 15955 ft 346 kts 339°
2026-05-05 14:22 12.90089 121.67879 16035 ft 348 kts 339°
2026-05-05 14:23 12.92340 121.66930 16121 ft 349 kts 339°
2026-05-05 14:23 12.94599 121.65977 16205 ft 349 kts 339°
2026-05-05 14:23 12.96875 121.65017 16281 ft 347 kts 339°
2026-05-05 14:23 12.99094 121.64079 16325 ft 350 kts 339°
2026-05-05 14:24 13.01368 121.63118 16397 ft 350 kts 339°
2026-05-05 14:24 13.03634 121.62161 16476 ft 351 kts 339°
2026-05-05 14:24 13.05903 121.61201 16550 ft 351 kts 339°
2026-05-05 14:24 13.08163 121.60246 16610 ft 351 kts 339°
2026-05-05 14:25 13.10446 121.59279 16664 ft 352 kts 339°
2026-05-05 14:25 13.12740 121.58305 16726 ft 352 kts 339°
2026-05-05 14:25 13.15019 121.57342 16769 ft 351 kts 339°
2026-05-05 14:25 13.17282 121.56381 16800 ft 353 kts 339°
2026-05-05 14:26 13.19564 121.55411 16854 ft 353 kts 339°
2026-05-05 14:26 13.21865 121.54435 16906 ft 353 kts 339°
2026-05-05 14:26 13.24131 121.53474 16943 ft 354 kts 339°
2026-05-05 14:26 13.26443 121.52495 16992 ft 354 kts 339°
2026-05-05 14:27 13.28724 121.51528 17054 ft 353 kts 339°
2026-05-05 14:27 13.31013 121.50558 17078 ft 354 kts 339°
2026-05-05 14:27 13.33304 121.49589 17112 ft 355 kts 339°
2026-05-05 14:27 13.35582 121.48624 17159 ft 355 kts 339°
2026-05-05 14:28 13.37881 121.47650 17197 ft 355 kts 339°
2026-05-05 14:28 13.40186 121.46674 17232 ft 355 kts 339°
2026-05-05 14:28 13.42488 121.45700 17264 ft 356 kts 339°
2026-05-05 14:28 13.44794 121.44724 17304 ft 355 kts 339°
2026-05-05 14:29 13.47099 121.43745 17333 ft 356 kts 339°
2026-05-05 14:29 13.49422 121.42758 17368 ft 357 kts 339°
2026-05-05 14:29 13.51750 121.41769 17408 ft 357 kts 339°
2026-05-05 14:29 13.54073 121.40781 17442 ft 356 kts 339°
2026-05-05 14:30 13.56341 121.39728 17485 ft 356 kts 334°
2026-05-05 14:30 13.58514 121.38448 17546 ft 356 kts 328°
2026-05-05 14:30 13.60559 121.36994 17589 ft 356 kts 326°
2026-05-05 14:30 13.62575 121.35494 17620 ft 356 kts 325°
2026-05-05 14:31 13.64590 121.33984 17653 ft 357 kts 325°
2026-05-05 14:31 13.66625 121.32460 17687 ft 357 kts 325°
2026-05-05 14:31 13.68632 121.30959 17715 ft 356 kts 325°
2026-05-05 14:31 13.70633 121.29465 17658 ft 352 kts 325°
2026-05-05 14:32 13.72616 121.27985 17387 ft 351 kts 325°
2026-05-05 14:32 13.74597 121.26507 17058 ft 351 kts 325°
2026-05-05 14:32 13.76581 121.25028 16752 ft 349 kts 325°
2026-05-05 14:32 13.78562 121.23550 16450 ft 348 kts 325°
2026-05-05 14:33 13.80532 121.22079 16156 ft 345 kts 325°
2026-05-05 14:33 13.82457 121.20642 15920 ft 342 kts 325°
2026-05-05 14:33 13.84380 121.19206 15594 ft 341 kts 325°
2026-05-05 14:33 13.86310 121.17766 15263 ft 340 kts 325°
2026-05-05 14:34 13.88220 121.16340 14949 ft 338 kts 325°
2026-05-05 14:34 13.90140 121.14906 14632 ft 336 kts 325°
2026-05-05 14:34 13.92020 121.13496 14312 ft 334 kts 324°
2026-05-05 14:34 13.93650 121.11780 13892 ft 337 kts 304°
2026-05-05 14:35 13.94818 121.09705 13540 ft 336 kts 298°
2026-05-05 14:35 13.95884 121.07555 13183 ft 334 kts 297°
2026-05-05 14:35 13.96925 121.05400 12827 ft 332 kts 297°
2026-05-05 14:35 13.97943 121.03281 12461 ft 330 kts 297°
2026-05-05 14:36 13.98957 121.01165 12097 ft 328 kts 297°
2026-05-05 14:36 13.99968 120.99057 11732 ft 326 kts 297°
2026-05-05 14:36 14.00961 120.96983 11363 ft 323 kts 297°
2026-05-05 14:36 14.01965 120.94890 10983 ft 321 kts 297°
2026-05-05 14:37 14.02946 120.92846 10616 ft 318 kts 297°
2026-05-05 14:37 14.03919 120.90816 10292 ft 315 kts 297°
2026-05-05 14:37 14.04889 120.88796 9940 ft 312 kts 298°
2026-05-05 14:37 14.06115 120.86957 9539 ft 308 kts 318°
2026-05-05 14:38 14.07770 120.85582 9190 ft 304 kts 326°
2026-05-05 14:38 14.09500 120.84334 8822 ft 301 kts 327°
2026-05-05 14:38 14.11235 120.83113 8434 ft 300 kts 327°
2026-05-05 14:38 14.13005 120.81873 8054 ft 298 kts 327°
2026-05-05 14:39 14.14713 120.80675 7689 ft 296 kts 327°
2026-05-05 14:39 14.16440 120.79463 7316 ft 294 kts 327°
2026-05-05 14:39 14.18156 120.78258 6947 ft 292 kts 327°
2026-05-05 14:39 14.19837 120.77078 6579 ft 290 kts 327°
2026-05-05 14:40 14.21493 120.75916 6204 ft 287 kts 327°
2026-05-05 14:40 14.23160 120.74743 5813 ft 286 kts 327°
2026-05-05 14:40 14.24793 120.73595 5454 ft 284 kts 328°
2026-05-05 14:40 14.26554 120.72714 5086 ft 276 kts 349°
2026-05-05 14:41 14.28478 120.72413 4986 ft 276 kts 356°
2026-05-05 14:41 14.29771 120.72287 4984 ft 277 kts 357°
2026-05-05 14:41 14.32343 120.72071 4982 ft 277 kts 357°
2026-05-05 14:41 14.34293 120.71914 4982 ft 277 kts 357°
2026-05-05 14:42 14.36216 120.71759 4982 ft 277 kts 357°
2026-05-05 14:42 14.38166 120.71602 4982 ft 277 kts 357°
2026-05-05 14:42 14.40084 120.71447 4983 ft 277 kts 357°
2026-05-05 14:42 14.42024 120.71290 4984 ft 277 kts 357°
2026-05-05 14:43 14.43957 120.71133 4984 ft 277 kts 357°
2026-05-05 14:43 14.45906 120.70973 4985 ft 277 kts 357°
2026-05-05 14:43 14.47833 120.70815 4986 ft 277 kts 357°
2026-05-05 14:43 14.49776 120.70656 4986 ft 277 kts 357°
2026-05-05 14:44 14.51712 120.70497 4987 ft 277 kts 357°
2026-05-05 14:44 14.53650 120.70339 4987 ft 277 kts 357°
2026-05-05 14:44 14.55586 120.70182 4986 ft 277 kts 357°
2026-05-05 14:44 14.57527 120.70071 4982 ft 276 kts
2026-05-05 14:45 14.59363 120.70618 4982 ft 273 kts 30°
2026-05-05 14:45 14.60970 120.71664 4983 ft 272 kts 36°
2026-05-05 14:45 14.62539 120.72813 4979 ft 272 kts 37°
2026-05-05 14:45 14.64067 120.73955 4976 ft 272 kts 37°
2026-05-05 14:46 14.65622 120.75125 4973 ft 272 kts 37°
2026-05-05 14:46 14.67141 120.76269 4935 ft 268 kts 37°
2026-05-05 14:46 14.68531 120.77532 4609 ft 264 kts 56°
2026-05-05 14:46 14.69075 120.79290 4407 ft 255 kts 90°
2026-05-05 14:47 14.68687 120.81041 4242 ft 248 kts 115°
2026-05-05 14:47 14.67672 120.82440 4066 ft 242 kts 135°
2026-05-05 14:47 14.66466 120.83652 3856 ft 236 kts 131°
2026-05-05 14:47 14.65383 120.84897 3659 ft 231 kts 129°
2026-05-05 14:48 14.64349 120.86127 3487 ft 224 kts 129°
2026-05-05 14:48 14.63331 120.87339 3323 ft 216 kts 129°
2026-05-05 14:48 14.62356 120.88500 3090 ft 213 kts 128°
2026-05-05 14:48 14.61384 120.89659 2849 ft 211 kts 128°
2026-05-05 14:49 14.60450 120.90769 2712 ft 200 kts 128°
2026-05-05 14:49 14.59545 120.91841 2452 ft 195 kts 128°
2026-05-05 14:49 14.58660 120.92889 2176 ft 187 kts 128°
2026-05-05 14:49 14.57820 120.93881 1814 ft 178 kts 128°
2026-05-05 14:50 14.57018 120.94830 1476 ft 170 kts 128°
2026-05-05 14:50 14.56263 120.95721 1220 ft 160 kts 128°
2026-05-05 14:50 14.55550 120.96564 1011 ft 149 kts 128°
2026-05-05 14:50 14.54905 120.97343 838 ft 138 kts 124°
2026-05-05 14:51 14.54351 120.98125 611 ft 134 kts 122°
2026-05-05 14:51 14.53759 120.98891 426 ft 135 kts 127°
2026-05-05 14:51 14.53121 120.99609 284 ft 135 kts 130°
2026-05-05 14:51 14.52462 121.00297 137 ft 134 kts 131°
2026-05-05 14:52 14.51840 121.00953 82 ft 101 kts 136°
2026-05-05 14:52 14.51545 121.01253 82 ft 26 kts 134°
2026-05-05 14:52 14.51445 121.01352 82 ft 13 kts 135°
2026-05-05 14:52 14.51379 121.01423 82 ft 13 kts 134°
2026-05-05 14:53 14.51337 121.01471 82 ft 7 kts 116°
2026-05-05 14:53 14.51345 121.01507 82 ft 4 kts 53°
2026-05-05 14:53 14.51366 121.01533 82 ft 3 kts 46°
2026-05-05 14:53 14.51380 121.01548 82 ft 3 kts 43°
2026-05-05 14:54 14.51403 121.01569 82 ft 5 kts 43°
2026-05-05 14:54 14.51438 121.01589 82 ft 6 kts 356°
2026-05-05 14:54 14.51479 121.01563 82 ft 7 kts 316°
2026-05-05 14:54 14.51518 121.01524 82 ft 5 kts 315°
2026-05-05 14:55 14.51550 121.01492 82 ft 7 kts 315°
2026-05-05 14:55 14.51582 121.01460 82 ft 4 kts 318°
2026-05-05 14:55 14.51609 121.01462 82 ft 4 kts 44°
2026-05-05 14:55 14.51623 121.01479 82 ft 3 kts 49°
2026-05-05 14:56 14.51638 121.01496 82 ft 3 kts 45°
2026-05-05 14:56 14.51655 121.01512 82 ft 3 kts 42°
2026-05-05 14:56 14.51662 121.01519 82 ft 0 kts 44°